カタログに戻る

BREEZE-M DEB

TANK

運用中HEO
NORAD 37604·DEBRIS·🇷🇺 Russia

打ち上げ May 20, 2011 から Baikonur Cosmodrome

Loading…

次のパス (今後24時間)

TLE

最新Source: Space-Track

元期: Sep 13, 2026, 07:05 UTC

1 37604U 11021C   26256.29544716  .00000975  00000-0  41949-3 0  9995
2 37604  49.3557   2.0474 5811973 102.8104 324.7515  4.28245972224088

AllMySatでBREEZE-M DEBをリアルタイム追跡

Download on the App Store